Regional Weather Roundup
Issued by NWS Charleston, WV

Home | Current Version | Previous Version | Text Only | Print | Product List | Glossary Off
Versions: 1 2 3 4 5 6 7 8 9 10 11 12 13 14 15 16 17 18 19 20 21 22 23 24 25 26 27 28 29 30 31 32 33 34 35 36 37 38 39 40 41 42 43 44 45 46 47 48 49 50

000
ASUS41 KRLX 292310
RWRRLX
West Virginia Regional Weather Roundup
National Weather Service Charleston WV
700 PM EDT TUE JUL 29 2014

Note: "fair" indicates few or no clouds below 12,000 feet with no
significant weather and/or obstructions to visibility.

WVZ003-300000-
Northern Panhandle of West Virginia

CITY           SKY/WX    TMP DP  RH WIND       PRES   REMARKS
WHEELING       MOSUNNY   67  48  50 W7        30.03S
$$

WVZ009-300000-
Northwest West Virginia

CITY           SKY/WX    TMP DP  RH WIND       PRES   REMARKS
PARKERSBURG    PTSUNNY   68  52  56 CALM      30.06R
$$

WVZ006-300000-
Western West Virginia

CITY           SKY/WX    TMP DP  RH WIND       PRES   REMARKS
HUNTINGTON     PTSUNNY   68  56  65 NW6       30.04F
$$

WVZ015-300000-
West Central West Virginia

CITY           SKY/WX    TMP DP  RH WIND       PRES   REMARKS
CHARLESTON     PTSUNNY   70  56  61 W5        30.04R
$$

WVZ031-300000-
North Central West Virginia

CITY           SKY/WX    TMP DP  RH WIND       PRES   REMARKS
CLARKSBURG     SUNNY     67  49  52 NW6       30.04S
MORGANTOWN     CLOUDY    68  48  48 VRB3      30.05R
$$

WVZ035-042-045-300000-
South Central West Virginia

CITY           SKY/WX    TMP DP  RH WIND       PRES   REMARKS
BECKLEY        PTSUNNY   64  52  64 N13       30.07R
BLUEFIELD      MOSUNNY   66  51  58 NW8       30.08R
LEWISBURG      PTSUNNY   68  51  55 N6        30.05S
$$

WVZ047-300000-
Northern Mountains of West Virginia

CITY           SKY/WX    TMP DP  RH WIND       PRES   REMARKS
ELKINS         SUNNY     64  49  57 NW5       30.07R
$$

WVZ052-300000-
Eastern Panhandle of West Virginia

CITY           SKY/WX    TMP DP  RH WIND       PRES   REMARKS
MARTINSBURG    MOSUNNY   69  46  43 W8        30.01R
PETERSBURG     MOSUNNY   68  43  39 NW10      30.03R
$$


USA.gov is the U.S. government's official web portal to all federal, state and local government web resources and services.